EW1015 Weather Reports


Display with metric or nautical units.
time (UTC)temp
F
wind
direction
speed
MPH
gust
MPH
rain 1hr
in
rain 24hr
in
rain mn
in
humidity
%
barometer
mb
20260904143038 71 300 4.0 8.0 0.00 0.19 0.00 6 1015.5
20260904141534 71 304 3.0 7.0 0.00 0.19 0.00 100 1015.4
20260904140035 70 12 3.0 9.0 0.00 0.19 0.00 100 1015.7
20260904134525 70 294 4.0 8.0 0.00 0.19 0.00 100 1015.6
20260904133022 69 317 4.0 8.0 0.00 0.19 0.00 100 1015.7
20260904131516 69 340 4.0 9.0 0.00 0.19 0.00 100 1015.8
20260904130029 68 288 2.0 9.0 0.00 0.19 0.00 100 1015.7
20260904124508 68 296 3.0 8.0 0.00 0.20 0.00 100 1015.7
20260904123003 67 273 4.0 10.0 0.00 0.20 0.00 100 1015.4
20260904121559 67 288 3.0 11.0 0.00 0.20 0.00 100 1015.6
20260904120057 66 309 3.0 7.0 0.00 0.20 0.00 100 1015.6
20260904114550 65 286 2.0 5.0 0.00 0.20 0.00 100 1015.5
20260904113045 65 339 2.0 5.0 0.00 0.20 0.00 100 1015.4
20260904111542 64 260 0.0 4.0 0.00 0.20 0.00 100 1015.4
20260904110039 64 269 0.0 1.0 0.00 0.20 0.00 100 1015.2
20260904104535 64 302 0.0 3.0 0.00 0.20 0.00 100 1015.2
20260904103028 64 250 0.0 2.0 0.00 0.20 0.00 100 1014.9
20260904101523 65 281 1.0 5.0 0.00 0.20 0.00 100 1014.9
20260904100018 65 259 2.0 5.0 0.00 0.20 0.00 100 1014.9
20260904094514 65 267 2.0 4.0 0.00 0.20 0.00 100 1014.8
20260904093010 65 250 1.0 4.0 0.00 0.20 0.00 100 1014.8
20260904091505 65 294 1.0 4.0 0.00 0.20 0.00 100 1014.7
20260904090004 65 250 1.0 3.0 0.00 0.20 0.00 100 1014.6
20260904084558 65 239 1.0 4.0 0.00 0.20 0.00 100 1014.6
20260904083052 65 265 1.0 5.0 0.00 0.20 0.00 100 1014.2
20260904081548 65 306 0.0 3.0 0.00 0.20 0.00 100 1014.1
20260904080048 65 360 1.0 4.0 0.00 0.20 0.00 100 1013.9
20260904074544 66 337 0.0 3.0 0.00 0.20 0.00 100 1013.9
20260904073036 66 321 0.0 2.0 0.00 0.20 0.00 100 1013.8
20260904071530 66 323 0.0 3.0 0.00 0.20 0.00 100 1013.5
20260904070026 67 315 1.0 4.0 0.00 0.20 0.00 100 1013.6
20260904064521 68 336 0.0 3.0 0.00 0.20 0.00 100 1013.5
20260904063021 68 290 0.0 3.0 0.00 0.20 0.00 100 1013.6
20260904061520 68 283 0.0 0.0 0.00 0.20 0.00 100 1013.7
20260904060008 67 283 0.0 0.0 0.00 0.20 0.00 100 1013.9
20260904054508 67 283 0.0 0.0 0.00 0.20 0.00 100 1013.9
20260904053102 68 283 0.0 0.0 0.00 0.20 0.00 100 1014.0
20260904051602 68 283 0.0 1.0 0.00 0.20 0.00 100 1014.0
20260904050050 68 283 0.0 2.0 0.00 0.20 0.00 100 1014.1
20260904044546 68 249 0.0 2.0 0.00 0.20 0.00 100 1014.0
20260904043042 68 249 0.0 1.0 0.00 0.20 0.00 100 1014.1
20260904041539 68 249 0.0 2.0 0.00 0.20 0.00 100 1014.2
20260904040036 68 249 0.0 0.0 0.00 0.20 0.00 100 1014.2
20260904034534 68 249 0.0 2.0 0.01 0.20 0.20 100 1014.2
20260904033033 68 249 0.0 2.0 0.01 0.20 0.20 100 1014.0
20260904031532 68 180 0.0 2.0 0.05 0.20 0.20 100 1014.1
20260904030031 68 180 0.0 2.0 0.05 0.20 0.20 100 1013.9
20260904024530 68 64 1.0 4.0 0.05 0.25 0.19 100 1014.3
20260904023027 69 84 2.0 9.0 0.14 0.25 0.19 100 1014.3
20260904021526 69 355 2.0 12.0 0.14 0.21 0.15 100 1014.2
20260904020018 72 326 3.0 4.0 0.14 0.21 0.15 100 1013.9
20260904014513 72 321 1.0 2.0 0.13 0.23 0.14 100 1013.7
20260904013011 72 304 0.0 1.0 0.03 0.13 0.04 100 1013.9
20260904011505 72 303 1.0 2.0 0.00 0.10 0.01 100 1013.5
20260904010115 72 306 0.0 2.0 0.00 0.10 0.01 100 1013.5
20260904004556 72 315 0.0 1.0 0.00 0.82 0.01 100 1013.6
20260904003052 72 315 1.0 2.0 0.00 0.82 0.01 100 1013.7
20260904001549 73 312 0.0 1.0 0.00 0.82 0.01 100 1013.7
20260904000052 73 318 1.0 2.0 0.00 0.82 0.01 100 1013.6
20260903234539 73 315 0.0 0.0 0.00 0.87 0.01 100 1013.4
20260903233035 74 315 0.0 0.0 0.00 0.87 0.01 100 1013.6
20260903231530 74 315 0.0 2.0 0.00 0.87 0.01 100 1013.6
20260903230025 75 306 1.0 2.0 0.00 0.87 0.01 100 1013.6
20260903224521 75 329 1.0 2.0 0.00 1.08 0.01 100 1013.5
20260903223023 75 29 2.0 6.0 0.00 1.08 0.01 100 1013.4
20260903221513 76 33 1.0 5.0 0.00 1.08 0.01 100 1013.1
20260903220008 76 63 2.0 7.0 0.00 1.08 0.01 100 1012.8
20260903214503 78 342 5.0 13.0 0.00 1.08 0.01 4 1013.1
20260903213103 80 313 6.0 10.0 0.00 1.08 0.01 28 1012.7
20260903211556 81 312 2.0 8.0 0.00 1.08 0.01 16 1012.6
20260903210106 81 300 2.0 8.0 0.00 1.08 0.01 19 1012.8
20260903204604 81 324 5.0 11.0 0.00 1.08 0.01 33 1013.0
20260903203041 81 257 6.0 13.0 0.00 1.08 0.01 33 1012.9
20260903201536 81 249 5.0 9.0 0.00 1.08 0.01 27 1012.9
20260903200032 81 273 5.0 11.0 0.00 1.08 0.01 26 1013.2
20260903194528 80 295 9.0 13.0 0.00 1.08 0.01 29 1013.4
20260903193023 81 292 7.0 14.0 0.00 1.08 0.01 38 1013.4
20260903191518 82 290 4.0 8.0 0.00 1.08 0.01 31 1013.3
20260903190014 80 306 3.0 13.0 0.00 1.08 0.01 19 1013.5
20260903184509 81 286 4.0 11.0 0.00 1.08 0.01 20 1013.7
20260903183005 80 346 4.0 9.0 0.00 1.08 0.01 20 1013.8
20260903181600 78 299 2.0 5.0 0.00 1.08 0.01 100 1014.0
20260903180100 78 360 3.0 5.0 0.00 1.08 0.01 100 1013.9
20260903174553 78 346 4.0 8.0 0.00 1.08 0.01 100 1014.1
20260903173048 78 314 2.0 5.0 0.00 1.08 0.01 4 1014.1
20260903171550 77 296 3.0 8.0 0.00 1.08 0.01 6 1014.2
20260903170038 77 254 2.0 5.0 0.00 1.08 0.01 8 1014.2
20260903164543 78 280 3.0 8.0 0.00 1.08 0.01 25 1014.1
20260903163029 78 288 3.0 5.0 0.00 1.08 0.01 35 1014.3
20260903161525 78 280 3.0 8.0 0.00 1.08 0.01 30 1014.4
20260903160049 79 338 5.0 10.0 0.00 1.08 0.01 40 1014.7
20260903154518 78 308 6.0 11.0 0.00 1.08 0.01 29 1014.8
20260903153012 78 288 5.0 9.0 0.00 1.08 0.01 100 1014.9
20260903151506 76 284 5.0 10.0 0.00 1.08 0.01 100 1014.8
20260903150008 75 304 5.0 10.0 0.00 1.08 0.01 100 1014.9
20260903144604 75 289 7.0 13.0 0.00 1.08 0.01 100 1014.9